Tracking 25710 objects as of 7-Jul-2022
HD Live streaming from Space Station
objects crossing your sky now

DELTA 1 DEB

Track DELTA 1 DEB now!
10-day predictions


NORAD ID: 12171
Int'l Code: 1978-026L
Perigee: 861.6 km
Apogee: 916.8 km
Inclination: 99.2 °
Period: 102.6 minutes
Semi major axis: 7260 km
RCS: 0.8162 m2 (medium)
Launch date: March 5, 1978
Source: United States (US)
Launch site: AIR FORCE WESTERN TEST RANGE (AFWTR)

Note: This is SATELLITE DEBRIS
aabbcc
Your satellite tracking list
Your tracking list is empty




NASA's NSSDC Master Catalog

Two Line Element Set (TLE):
1 12171U 78026L   22187.58542861  .00000053  00000-0  62270-4 0  9993
2 12171  99.1627 164.1245 0037977 134.4414 341.6291 14.03398022120196
Source of the keplerian elements: AFSPC